Weather History for Madisonville, KY

Change the Weather History Date:

Friday, December 9, 2011

  Actual Average (KOWB) Record (KOWB)
Temperature  
Mean Temperature 38 °F -  
Max Temperature 48 °F 49 °F 71 °F (1946)
Min Temperature 28 °F 29 °F 5 °F (1937)
Degree Days  
Heating Degree Days 27    
Moisture  
Dew Point 29 °F    
Average Humidity 80    
Maximum Humidity 93    
Minimum Humidity 46    
Precipitation  
Precipitation 0.00 in - - ()
Sea Level Pressure  
Sea Level Pressure 30.32 in    
Wind  
Wind Speed 4 mph ()    
Max Wind Speed 16 mph    
Max Gust Speed 20 mph    
Visibility 9.8 miles    
Events      
Averages and records for this station are not official NWS values.
T = Trace of Precipitation, MM = Missing Value Source: Averaged Metar Reports

Daily Weather History Graph

Daily Weather History Graph

Search for Another Location

Airport:

Trip Planner

Search our weather history database for the weather conditions in past years. The results will help you decide how hot, cold, wet, or windy it might be!

Date:

Astronomy

Dec. 09, 2011 Rise Set
Actual Time 6:51 AM CST 4:31 PM CST
Civil Twilight 6:22 AM CST 5:00 PM CST
Nautical Twilight 5:50 AM CST 5:33 PM CST
Astronomical Twilight 5:18 AM CST 6:05 PM CST
Moon 3:55 PM CST (12/9) 5:58 AM CST (12/9)
Length of Visible Light 10h 37m
Length of Day
9h 39m
Waxing Gibbous, 99% of the Moon is Illuminated
Dec 9
Waxing Gibbous
Dec 10
Full
Dec 17
Last Quarter
Dec 24
New
Jan 1
First Quarter

Hourly Weather History & Observations

Time (CST) Temp. Windchill Dew Point Humidity Pressure Visibility Wind Dir Wind Speed Gust Speed Precip Events Conditions
12:15 AM 30.2 °F - 26.6 °F 86% 30.25 in 10.0 mi Calm Calm - N/A   Clear
12:35 AM 28.4 °F - 26.6 °F 93% 30.24 in 10.0 mi Calm Calm - N/A   Clear
12:55 AM 28.4 °F - 26.6 °F 93% 30.24 in 10.0 mi Calm Calm - N/A   Clear
1:15 AM 28.4 °F 24.6 °F 26.6 °F 93% 30.24 in 10.0 mi South 3.5 mph - N/A   Clear
1:35 AM 28.4 °F 24.6 °F 26.6 °F 93% 30.23 in 10.0 mi South 3.5 mph - N/A   Clear
2:15 AM 28.4 °F 24.6 °F 26.6 °F 93% 30.24 in 10.0 mi South 3.5 mph - N/A   Clear
2:35 AM 28.4 °F 24.6 °F 26.6 °F 93% 30.23 in 10.0 mi South 3.5 mph - N/A   Clear
2:55 AM 28.4 °F 24.6 °F 26.6 °F 93% 30.23 in 10.0 mi South 3.5 mph - N/A   Clear
3:15 AM 28.4 °F - 26.6 °F 93% 30.24 in 10.0 mi Calm Calm - N/A   Clear
3:35 AM 28.4 °F - 24.8 °F 86% 30.23 in 10.0 mi Calm Calm - N/A   Clear
3:55 AM 28.4 °F 24.6 °F 26.6 °F 93% 30.24 in 10.0 mi SSW 3.5 mph - N/A   Clear
4:15 AM 28.4 °F 24.6 °F 24.8 °F 86% 30.23 in 10.0 mi South 3.5 mph - N/A   Clear
4:35 AM 28.4 °F 24.6 °F 26.6 °F 93% 30.24 in 10.0 mi SSW 3.5 mph - N/A   Clear
4:55 AM 28.4 °F 23.3 °F 24.8 °F 86% 30.24 in 10.0 mi SSW 4.6 mph - N/A   Clear
5:15 AM 28.4 °F 24.6 °F 24.8 °F 86% 30.25 in 10.0 mi SSW 3.5 mph - N/A   Clear
5:35 AM 28.4 °F - 24.8 °F 86% 30.25 in 10.0 mi Calm Calm - N/A   Clear
5:55 AM 28.4 °F 24.6 °F 24.8 °F 86% 30.25 in 10.0 mi South 3.5 mph - N/A   Clear
6:15 AM 30.2 °F 26.7 °F 26.6 °F 86% 30.26 in 10.0 mi South 3.5 mph - N/A   Clear
6:35 AM 28.4 °F - 26.6 °F 93% 30.26 in 10.0 mi Calm Calm - N/A   Clear
7:15 AM 28.4 °F 24.6 °F 26.6 °F 93% 30.27 in 10.0 mi SSW 3.5 mph - N/A   Clear
7:35 AM 28.4 °F 24.6 °F 26.6 °F 93% 30.28 in 10.0 mi South 3.5 mph - N/A   Clear
7:55 AM 32.0 °F - 28.4 °F 87% 30.28 in 10.0 mi Calm Calm - N/A   Clear
8:15 AM 32.0 °F 28.7 °F 30.2 °F 93% 30.28 in 10.0 mi South 3.5 mph - N/A   Clear
8:35 AM 33.8 °F 28.6 °F 30.2 °F 87% 30.28 in 10.0 mi South 5.8 mph - N/A   Clear
8:55 AM 35.6 °F 30.7 °F 30.2 °F 81% 30.29 in 10.0 mi SSW 5.8 mph - N/A   Clear
9:15 AM 37.4 °F 33.8 °F 32.0 °F 81% 30.29 in 10.0 mi SW 4.6 mph - N/A   Clear
9:35 AM 37.4 °F 33.8 °F 32.0 °F 81% 30.29 in 10.0 mi SW 4.6 mph - N/A   Clear
9:55 AM 39.2 °F 34.2 °F 32.0 °F 75% 30.29 in 10.0 mi SW 6.9 mph - N/A   Clear
10:15 AM 41.0 °F 35.8 °F 32.0 °F 70% 30.29 in 10.0 mi WSW 8.1 mph - N/A   Clear
10:35 AM 42.8 °F 38.6 °F 32.0 °F 66% 30.29 in 10.0 mi West 6.9 mph - N/A   Clear
10:55 AM 42.8 °F 38.6 °F 32.0 °F 66% 30.29 in 10.0 mi West 6.9 mph - N/A   Clear
11:15 AM 42.8 °F 40.1 °F 32.0 °F 66% 30.29 in 10.0 mi WNW 4.6 mph - N/A   Clear
11:35 AM 44.6 °F 43.1 °F 32.0 °F 61% 30.29 in 10.0 mi West 3.5 mph - N/A   Clear
11:55 AM 44.6 °F 42.2 °F 32.0 °F 61% 30.28 in 10.0 mi West 4.6 mph - N/A   Clear
12:15 PM 44.6 °F 43.1 °F 32.0 °F 61% 30.28 in 10.0 mi West 3.5 mph - N/A   Clear
12:35 PM 46.4 °F 43.5 °F 30.2 °F 53% 30.28 in 10.0 mi WSW 5.8 mph - N/A   Clear
1:15 PM 46.4 °F 43.5 °F 28.4 °F 50% 30.27 in 10.0 mi West 5.8 mph - N/A   Clear
1:35 PM 46.4 °F 43.5 °F 28.4 °F 50% 30.27 in 10.0 mi NW 5.8 mph - N/A   Scattered Clouds
1:55 PM 48.2 °F - 28.4 °F 46% 30.28 in 10.0 mi NNW 5.8 mph - N/A   Scattered Clouds
2:15 PM 46.4 °F 41.1 °F 32.0 °F 57% 30.28 in 10.0 mi NNW 11.5 mph - N/A   Overcast
2:35 PM 44.6 °F 40.7 °F 32.0 °F 61% 30.29 in 10.0 mi NNW 6.9 mph - N/A   Mostly Cloudy
2:55 PM 44.6 °F 40.7 °F 30.2 °F 57% 30.29 in 10.0 mi NNW 6.9 mph - N/A   Overcast
3:15 PM 44.6 °F 39.2 °F 32.0 °F 61% 30.30 in 10.0 mi NNW 10.4 mph - N/A   Overcast
3:35 PM 42.8 °F 36.6 °F 32.0 °F 66% 30.30 in 10.0 mi NNW 11.5 mph - N/A   Mostly Cloudy
4:15 PM 41.0 °F 32.8 °F 32.0 °F 70% 30.32 in 10.0 mi NNW 16.1 mph - N/A   Clear
4:35 PM 39.2 °F 30.8 °F 32.0 °F 75% 30.34 in 10.0 mi NNW 15.0 mph - N/A   Mostly Cloudy
4:55 PM 37.4 °F 29.3 °F 32.0 °F 81% 30.35 in 10.0 mi NNW 12.7 mph 19.6 mph N/A   Mostly Cloudy
5:15 PM 37.4 °F 29.8 °F 32.0 °F 81% 30.36 in 10.0 mi NNW 11.5 mph 19.6 mph N/A   Overcast
5:35 PM 37.4 °F 29.3 °F 32.0 °F 81% 30.36 in 7.0 mi NNW 12.7 mph - N/A   Overcast
5:55 PM 37.4 °F 29.3 °F 32.0 °F 81% 30.37 in 7.0 mi North 12.7 mph - N/A   Overcast
6:15 PM 35.6 °F 27.1 °F 32.0 °F 87% 30.38 in 7.0 mi North 12.7 mph - N/A   Overcast
6:35 PM 35.6 °F 28.6 °F 32.0 °F 87% 30.39 in 7.0 mi North 9.2 mph - N/A   Overcast
6:55 PM 35.6 °F 27.1 °F 30.2 °F 81% 30.40 in 10.0 mi North 12.7 mph - N/A   Scattered Clouds
7:15 PM 33.8 °F 26.4 °F 30.2 °F 87% 30.41 in 10.0 mi North 9.2 mph - N/A   Scattered Clouds
7:35 PM 33.8 °F 27.0 °F 30.2 °F 87% 30.42 in 10.0 mi North 8.1 mph - N/A   Mostly Cloudy
7:55 PM 33.8 °F 25.8 °F 30.2 °F 87% 30.42 in 10.0 mi North 10.4 mph - N/A   Mostly Cloudy
8:15 PM 33.8 °F 25.3 °F 30.2 °F 87% 30.42 in 10.0 mi North 11.5 mph - N/A   Mostly Cloudy
8:35 PM 35.6 °F 28.6 °F 30.2 °F 81% 30.43 in 10.0 mi North 9.2 mph - N/A   Overcast
8:55 PM 35.6 °F 28.6 °F 30.2 °F 81% 30.44 in 10.0 mi North 9.2 mph - N/A   Overcast
9:35 PM 35.6 °F 27.1 °F 30.2 °F 81% 30.44 in 10.0 mi North 12.7 mph - N/A   Overcast
9:55 PM 33.8 °F 24.8 °F 28.4 °F 81% 30.45 in 10.0 mi North 12.7 mph - N/A   Mostly Cloudy
10:15 PM 32.0 °F 24.8 °F 28.4 °F 87% 30.45 in 10.0 mi North 8.1 mph - N/A   Clear
10:35 PM 32.0 °F 26.4 °F 28.4 °F 87% 30.46 in 10.0 mi North 5.8 mph - N/A   Clear
10:55 PM 32.0 °F 26.4 °F 28.4 °F 87% 30.46 in 10.0 mi North 5.8 mph - N/A   Clear
11:15 PM 30.2 °F 24.3 °F 28.4 °F 93% 30.46 in 10.0 mi North 5.8 mph - N/A   Clear
11:35 PM 30.2 °F 25.4 °F 26.6 °F 86% 30.46 in 10.0 mi North 4.6 mph - N/A   Clear
11:55 PM 30.2 °F 23.4 °F 26.6 °F 86% 30.47 in 10.0 mi North 6.9 mph - N/A   Clear